Tracking 29892 objects as of 21-Nov-2024
HD Live streaming from Space Station
objects crossing your sky now

DELTA 1 DEB

Track DELTA 1 DEB now!
10-day predictions


NORAD ID: 20051
Int'l Code: 1976-077FN
Perigee: 1,499.0 km
Apogee: 1,746.9 km
Inclination: 102.5 °
Period: 118.6 minutes
Semi major axis: 7993 km
RCS: 0.021 m2 (small)
Launch date: July 29, 1976
Source: United States (US)
Launch site: AIR FORCE WESTERN TEST RANGE (AFWTR)

Note: This is SATELLITE DEBRIS
Your satellite tracking list
Your tracking list is empty




NASA's NSSDC Master Catalog

Two Line Element Set (TLE):
1 20051U 76077FN  24325.87048774  .00000089  00000-0  13286-2 0  9995
2 20051 102.4772 281.5549 0155067 304.9909  81.5511 12.14672038528588
Source of the keplerian elements: AFSPC